Weather Roundup
Issued by NWS Corpus Christi, TX

Home | Current Version | Previous Version | Text Only | Print | Product List | Glossary On
Versions: 1 2 3 4 5 6 7 8 9 10 11 12 13 14 15 16 17 18 19 20 21 22 23 24 25 26 27 28 29 30 31 32 33 34 35 36 37 38 39 40 41 42 43 44 45 46 47 48 49 50
000
ASUS44 KCRP 291010
HRRCRP

SOUTH TEXAS REGIONAL WEATHER ROUNDUP
NATIONAL WEATHER SERVICE CORPUS CHRISTI TX
400 AM CST THU JAN 29 2015


TXZ229>244-291100-
...CORPUS CHRISTI AREA OBSERVATIONS...

CITY           SKY/WX    TMP DP  RH WIND       PRES   REMARKS
CORPUS CHRISTI PTCLDY    55  54  96 SE8       30.13F
NAS CORPUS CHR CLEAR     60  60 100 S7        30.14S
ROCKPORT       CLEAR     61  59  93 S5        30.14F
KINGSVILLE NAS FOG       52  52 100 E5        30.13F VSB 1
ALICE          FOG       54  53  97 SE6       30.12F VSB 1/4
FALFURRIAS     CLOUDY    54  53  95 CALM      30.12F VSB 3/4
$$

...VICTORIA AREA OBSERVATIONS...

CITY           SKY/WX    TMP DP  RH WIND       PRES   REMARKS
VICTORIA       FOG       53  52  96 CALM      30.15F VSB 1/4
BEEVILLE       FOG       52  52 100 CALM      30.13F VSB<1/4
PLEASANTON     FOG       55  54  97 SE3       30.14S VSB<1/4
SAN ANTONIO    MOCLDY    53  51  93 CALM      30.14F
$$

...LAREDO AREA OBSERVATIONS...

CITY           SKY/WX    TMP DP  RH WIND       PRES   REMARKS
LAREDO         NOT AVBL
COTULLA        CLEAR     56  54  93 SE7       30.11S
DEL RIO        CLEAR     56  43  61 E9        30.09S
MCALLEN        CLEAR     59  58  96 SE9       30.12S FOG
HEBBRONVILLE   HVY RAIN  58  58  98 SE8       30.12S VSB 1/2
$$

...OTHER TEXAS OBSERVATIONS...

CITY           SKY/WX    TMP DP  RH WIND       PRES   REMARKS
BROWNSVILLE    CLEAR     59  58  96 SE6       30.13F
HOUSTON        PTCLDY    53  53 100 CALM      30.15F FOG
COL. STATION   CLOUDY    59  57  93 S9        30.14S
AUSTIN         PTCLDY    46  46 100 CALM      30.14R
WACO           CLEAR     50  44  80 S7        30.10F
FORT WORTH     MOCLDY    60  39  45 SW6       30.07R
WICHITA FALLS  CLEAR     48  37  65 N13       30.11R
LUBBOCK        PTCLDY    45  34  65 NE10      30.20R
EL PASO        MOCLDY    45  37  73 NE5       30.18S
$$

...MARINE OBSERVATIONS...

STATION/POSITION TIME  SKY/WX   TEMP    WIND        PRES    VSBY  WAVE   SWELL
                                AIR SEA DIR/SP/G                  HT/PER HT/PER
                 (UTC)          (F)     (DEG/KT/KT) (MB)    (MI)  (FT/S) (FT/S)
PORT ARANSAS     1000            62 60  140/  8/  9 1020.9F
BUOY 90 E PORT A 1000            68 68  170/ 10/ 12 1021.6F         2/ 4
BUOY 45 SE BAFFI 1000            68 70  160/ 10/ 10 1020.5F         1/ 4
BUOY 200 E PT IS 1000            69 72  150/  6/  6 1022.2R         1/ 3
BUOY 15 E GALVES 1000            58 57  150/  6/  6 1021.3F         1/ 4   2/ 4
$$



USA.gov is the U.S. government's official web portal to all federal, state and local government web resources and services.